Flag for U.S.A. Weather past 2 weeks in Sheboygan, Wisconsin, U.S.A.

Now
31 °F

Overcast.


Feels Like: 21 °F
Forecast: 22 / 35 °F
Wind: 14 mph from Northwest

Location: Sheboygan County Memorial Airport

Current Time: Jan 29, 2015 at 10:38:08 AM

Latest Report: Jan 29, 2015 at 9:53 AM


Visibility: 6 mi

Pressure: 29.89 "Hg

Humidity: 79%

Dew point: 25 °F

Location of SheboyganLocation

Historic Weather in Sheboygan — Graph

°F

Sheboygan temperature yesterday

Maximum temperature yesterday: 33 °F (at 10:53 PM)
Minimum temperature yesterday: 18 °F (at 2:53 AM)
Average temperature yesterday: 27 °F

Past Weeks' High & Low Weather Summary

 TemperatureHumidityPressure
High41 °F (Jan 17, 12:53 PM)96% (Jan 19, 10:53 PM)30.45 "Hg (Jan 19, 10:53 PM)
Low11 °F (Jan 26, 3:53 AM)57% (Jan 25, 1:53 PM)29.48 "Hg (Jan 17, 3:53 PM)
Average27 °F77%30.00 "Hg
* Reported Jan 14 8:53 AM — Jan 29 8:53 AM, Sheboygan, Weather by CustomWeather, © 2014

Note: Actual official high and low records may vary slightly from our data, if they occured in-between our weather recording intervals... More about our weather records

Advertising

Sheboygan weather history for previous 24 hours

 ConditionsComfort  
Time TempWeatherWind HumidityBarometerVisibility
8:53 AM
Jan 29
30 °FMostly cloudy.16 mph82%29.86 "Hg5 mi
8:02 AM30 °FCloudy.13 mph82%29.82 "Hg3 mi
7:53 AM30 °FLight snow. Mostly cloudy.16 mph82%29.83 "Hg2 mi
6:53 AM31 °FOvercast.12 mph79%29.80 "Hg6 mi
5:53 AM32 °FOvercast.5 mph79%29.77 "Hg7 mi
4:53 AM31 °FOvercast.5 mph82%29.76 "Hg7 mi
3:53 AM31 °FOvercast.5 mph82%29.78 "Hg9 mi
2:53 AM32 °FOvercast.6 mph79%29.79 "Hg10 mi
1:53 AM32 °FMostly cloudy.5 mph79%29.82 "Hg10 mi
1:01 AM32 °FLight snow. Overcast.7 mph79%29.80 "Hg6 mi
11:53 PM
Jan 28
33 °FLight snow. Overcast.10 mph70%29.84 "Hg8 mi
10:53 PM33 °FMostly cloudy.13 mph70%29.88 "Hg10 mi
9:53 PM32 °FPassing clouds.16 mph73%29.90 "Hg10 mi
8:53 PM32 °FClear.13 mph73%29.94 "Hg10 mi
7:53 PM32 °FClear.18 mph69%29.95 "Hg10 mi
6:53 PM32 °FClear.15 mph69%29.97 "Hg10 mi
5:53 PM32 °FClear.14 mph69%30.01 "Hg10 mi
4:53 PM31 °FSunny.12 mph69%30.04 "Hg10 mi
3:53 PM31 °FSunny.12 mph69%30.07 "Hg10 mi
2:53 PM32 °FSunny.13 mph64%30.11 "Hg10 mi
1:53 PM32 °FSunny.13 mph73%30.13 "Hg10 mi
12:53 PM31 °FSunny.14 mph73%30.16 "Hg10 mi
11:53 AM30 °FScattered clouds.15 mph75%30.19 "Hg10 mi
10:53 AM30 °FOvercast.17 mph75%30.23 "Hg10 mi
Weather by CustomWeather, © 2014

See weather overviewHow to use our weather pages